sat.trackr.live / text

‹ back to catalog

ONEWEB-0576

NORAD 56065 · 2023-043V

PAYLOAD ACTIVE UNKNOWN

§ Identity

Operator
Country
UK
Launch date
2023-03-26
Launch site
SRILR
Launch vehicle
Mass (kg)
RCS (m²)

Purposes: comms

External: N2YO · Heavens-Above · Gunter

§ Orbital elements

Epoch: 2026-05-25T04:28:34.045824Z

Period
109.37 min
Inclination
87.9106°
Eccentricity
0.0002310
Mean motion
13.16599737 rev/d
Perigee alt
1,196.0 km
Apogee alt
1,199.5 km
Semi-major
7,575.9 km
B*
6.9779e-4
RAAN
233.3410°
Arg perigee
98.7415°
Mean anomaly
261.3977°
Rev number
15,593

§ Raw data

ONEWEB-05761 56065U 23043V   26145.18650516  .00000280  00000+0  69779-3 0  99942 56065  87.9106 233.3410 0002310  98.7415 261.3977 13.16599737155930

JSON: /api/v1/satellites/56065 · /tle

For live sub-satellite position, see the globe view (requires WebGL).

§ Visibility from observer

Set your observer location to see the next 7 days of passes ≥ 10°. The values pass through the URL so the page stays shareable.

No JS? Fill the form by hand. The geolocation button needs JavaScript.